Location: Zagreb
(45.8000°N, 16.0000°E)
Time: 14:16:03
(UTC+02:00)

Transit 2A Rocket - Pass Details

Date: 09 August 2022
Orbit: 593 x 907 km, 66.7° (Epoch: 25 September)

Event Time Altitude Azimuth Distance (km) Brightness Sun altitude
Rises 21:07:53 0° 243° (WSW) 2,978 8.5 -9.1°
Reaches altitude 10° 21:10:32 10° 256° (WSW) 2,026 7.8 -9.5°
Maximum altitude 21:14:24 27° 314° (NW) 1,198 7.0 -10.0°
Drops below altitude 10° 21:18:07 10° 13° (NNE) 1,949 7.4 -10.5°
Sets 21:20:37 0° 26° (NNE) 2,843 8.1 -10.9°
